Regional Weather Roundup
Issued by NWS

Home | Current Version | Previous Version | Text Only | Print | Product List | Glossary Off
Versions: 1 2 3 4 5 6 7 8 9 10 11 12 13 14 15 16 17 18 19 20 21 22 23 24 25 26 27 28 29 30 31 32 33 34 35 36 37 38 39 40 41 42 43 44 45 46 47 48 49 50

000
ASUS43 KIND 311409
RWRIN

WEATHER ROUNDUP FOR INDIANA
NATIONAL WEATHER SERVICE INDIANAPOLIS IN
1000 AM EDT FRI JUL 31 2015

NOTE: "FAIR" INDICATES FEW OR NO CLOUDS BELOW 12,000 FEET WITH NO
SIGNIFICANT WEATHER AND/OR OBSTRUCTIONS TO VISIBILITY.

* - STATION DOES NOT REPORT WEATHER SUCH AS PRECIPITATION OR FOG.

+ - STATION NOT QUALITY CONTROLLED BY THE NATIONAL WEATHER SERVICE.
    USE DATA WITH CAUTION...ESPECIALLY DEWPOINT AND RELATIVE
    HUMIDITY OBSERVATIONS.

INZ001>003-010>013-019-020-311500-
NORTHWEST INDIANA

CITY           SKY/WX    TMP DP  RH WIND       PRES   REMARKS
GARY /AIRPORT/ PTSUNNY   77  63  61 W14       30.05R
KNOX *+        SUNNY     73  61  64 W7        30.03S
LA PORTE +     SUNNY     78  64  61 W7        30.03F
MICHIGAN CITY+ SUNNY     77  61  57 W6        30.03S
MONTICELLO +   SUNNY     74  67  76 W3        30.05S
RENSSELAER +   SUNNY     73  68  83 SW5       30.06S
VALPARAISO     MOSUNNY   78  62  57 W12       30.04S

$$

LMZ046-743>745-311500-
SOUTHERN LAKE MICHIGAN

STATION/POSITION TIME  TEMP    WIND        PRES    WAVE
                       AIR SEA DIR/SP/G            HT
                 (UTC) (F)     (DEG/KT/KT) (MB)    (FT)
BURNS HARBOR     1300   74     240/  8/ 11 1017.3S
MICHIGAN CITY    1300   73     210/ 11/ 13   N/A
5NW MICH CITY    1400   74 73  260/ 12/ 16   N/A     2

$$

INZ004-005-014>016-021>024-311500-
NORTH CENTRAL INDIANA

CITY           SKY/WX    TMP DP  RH WIND       PRES   REMARKS
ELKHART        SUNNY     77  61  57 W7        30.02S
GOSHEN         SUNNY     76  64  66 W7        30.02S
LOGANSPORT +   SUNNY     75  61  60 W6        30.06F
PERU/GRISSOM   SUNNY     75  65  70 W7        30.05S
ROCHESTER +    SUNNY     77  64  65 W7        30.05S
SOUTH BEND     MOSUNNY   77  64  64 W10       30.03R
WARSAW +       SUNNY     75  63  64 W6        30.03F

$$

INZ006>009-017-018-025>027-311500-
NORTHEAST INDIANA

CITY           SKY/WX    TMP DP  RH WIND       PRES   REMARKS
ANGOLA *+      SUNNY     77  66  69 W6        30.01F
AUBURN +       SUNNY     77  61  57 W6        30.03S
FORT WAYNE     SUNNY     77  63  61 W8        30.04S
HUNTINGTON +   SUNNY     74  63  68 W5        30.04S

$$

INZ028-029-035-036-043>045-051>053-311500-
WEST CENTRAL INDIANA

CITY           SKY/WX    TMP DP  RH WIND       PRES   REMARKS
CRAWFORDSVL +  SUNNY     73  64  73 W3          N/A
GREENCASTLE +  SUNNY     75  61  60 CALM      30.10S
LAFAYETTE      SUNNY     74  67  78 W6        30.06F
TERRE HAUTE    SUNNY     79  65  62 NW5       30.09S

$$

INZ030>032-037>040-046>048-054>057-064-065-311500-
CENTRAL INDIANA

CITY           SKY/WX    TMP DP  RH WIND       PRES   REMARKS
ANDERSON       SUNNY     75  57  53 NW12      30.08S
FISHERS *+     SUNNY     77  64  65 NW6       30.07F
FRANKFORT +    SUNNY     76  68  75 CALM      30.08F
GREENWOOD *+   SUNNY     77  61  57 N7        30.08S
INDIANAPOLIS   SUNNY     79  61  53 N8        30.07S
-EAGLE CREEK   SUNNY     77  64  64 NW7       30.08S
KOKOMO *+      SUNNY     75  64  69 W8        30.06F
MARION +       SUNNY     73  64  71 CALM      30.06F
MT COMFORT *+  SUNNY     77  61  57 NW7       30.08S
SHELBYVILLE    SUNNY     77  65  66 VRB3      30.07S
ZIONSVILLE +   SUNNY     77  63  61 NW3       30.08F

$$

INZ033-034-041-042-049-050-058-059-311500-
EAST CENTRAL INDIANA

CITY           SKY/WX    TMP DP  RH WIND       PRES   REMARKS
MUNCIE         SUNNY     74  63  68 NW8       30.06S

$$

INZ060-061-067>069-081>083-085>088-311500-
SOUTHWEST INDIANA

CITY           SKY/WX    TMP DP  RH WIND       PRES   REMARKS
EVANSVILLE     SUNNY     79  66  64 N6        30.10S
HUNTINGBURG *+ SUNNY     75  68  78 NE3       30.10S
WASHINGTON +   SUNNY     75  66  74 CALM      30.09F

$$

INZ062-063-066-070>080-084-089>092-311500-
SOUTH CENTRAL AND SOUTHEAST INDIANA

CITY           SKY/WX    TMP DP  RH WIND       PRES   REMARKS
BLOOMINGTON    SUNNY     78  65  63 N3        30.09S
NORTH VERNON + SUNNY     75  70  83 CALM      30.09S
SEYMOUR +      SUNNY     77  66  69 N5        30.08S

$$




USA.gov is the U.S. government's official web portal to all federal, state and local government web resources and services.